STARLINK-33840, 63682

Orbit data source: Space-Track

STARLINK-33840, 63682 is a payload satellite owned by SpaceX/Seattle (US) in LEO that was launched on Mon, 28 Apr 2025 UTC via an FALCON 9 launch vehicle from the Air Force Eastern Test Range (AFETR). Payload-class satellites include a variety of spacecraft equipped with specific instruments for various scientific and technological missions. These include communications satellites like Starlink; space stations such as the ISS; scientific satellites like the Hubble; Earth observation satellites from companies like Planet Labs, Umbra, and HawkEye 360; GPS; miniature CubeSats for education and research; and military/defense satellites.

Loading next visibility...
Identifier
63682, 2025-085U
Orbit
LEO
Country
Flag of USUS
Related business
Manufacturer
SpaceX/Seattle
Mission
Operational Commercial Communications
Bus & Motor
STARLINK V2MO, Unknown motor
Mass
575 kg wet, ~530 kg dry
Launch date (UTC)
2025-04-28 (1 year ago)
Launch vehicle
FALCON 9
Launch site
Air Force Eastern Test Range (AFETR)
Object type
Payload
Rocket body
Debris
Shape & HBR
Box + 2 Pan, 17.7 m
Radar Cross Section
36.964 m², Large (>1 m²)

Expand to show TLE details & history
Last TLE update: 20 hours ago

TLE from 20 hours ago
0 STARLINK-33840
1 63682U 25085U   26171.05614023  .00011330  00000-0  42052-3 0  9997
2 63682  43.0012 172.9677 0001506 269.6980  90.3699 15.27587934 64522
Epoch: 2026-06-20T01:20Z
TLE epoch observation values (Epoch: 2026-06-20T01:20:50.515Z)
Latitude
-0.00004°
Longitude
-115.51907°
Altitude
482.808 km
Speed
7.626 km/s
True Right ascension
11h 31m 52s
True Declination
0° 00' 00"
Sunlit
Object was in daylight at epoch
Visualization orbit readout
Latitude
Unknown
Longitude
Unknown
Altitude
Unknown
Speed
Unknown
Apparent Right ascension
Unknown
Apparent Declination
Unknown
Sunlit
N/A
Visualization observer readout
Local Sidereal Time
08:33:23
Azimuth
Unknown
Elevation
Unknown
Doppler factor
Unknown
Orbital elements
Apogee altitude
486.004 km
Perigee altitude
483.937 km
Semi-major axis
6,863.107 km
Eccentricity
0.00015
Inclination
43.0012°
RAAN
172.9677°
Arg. of periapsis
269.698°
True anomaly
90.38716°
Mean anomaly
90.3699°
Eccentric anomaly
90.37853°
Mean motion
3.81735 °/min
Orbital period
94.31 mins
BSTAR
0.00042052
Loading maneuver chart data...
Computing Atmospheric mass density...
Loading historical data...
Loading historical data...
Loading historical data...
Loading historical data...
Loading historical data...
Loading historical data...
Loading historical data...

Documentation

Showing up to 5 results
|